Wind_Speed
33 32 31 31 31 31 30 29 28 26 24 23 22 21 18 17 18 19 19 18 17 16 13 11 12 14 15 16 18 18 16 14 12 11 10 12 12 11 12 14 15 15 14 14 14 14 15 15 14 13 13 15 21 27 29 30 30 28 25 21 17 18 21 22 20 15 14 16 17 15 15 14 12 10 9 8 7 7 8 10 13 12 11 9 7
32 32 31 31 31 30 29 28 27 26 24 24 23 21 18 17 19 19 18 17 16 14 13 11 12 14 15 16 17 17 15 13 12 11 10 12 13 12 13 16 16 15 15 15 16 16 15 15 14 13 13 15 21 26 29 30 28 26 23 18 18 21 19 18 23 21 16 16 16 15 14 13 12 10 9 8 8 7 8 10 13 12 11 8 6
31 31 30 30 30 30 29 28 26 26 25 24 23 20 18 18 19 19 18 16 14 13 13 12 13 14 15 17 17 16 15 13 11 10 10 11 12 13 14 15 14 15 16 16 17 16 15 14 14 13 13 15 21 25 28 29 27 24 21 17 19 21 17 14 17 21 20 17 15 15 14 12 12 11 9 9 9 8 8 11 13 12 11 8 7
30 30 30 31 30 30 29 27 26 26 26 24 23 20 19 19 19 19 17 15 14 14 13 13 14 15 15 16 16 16 15 13 12 11 11 11 11 13 14 14 13 14 15 16 16 16 15 14 14 14 14 16 21 25 27 27 25 23 21 19 20 20 17 14 15 20 24 20 15 15 15 14 13 12 10 10 10 9 9 10 12 11 10 9 8
30 30 31 31 30 30 29 27 26 27 25 24 23 21 20 20 19 18 17 16 15 14 14 15 16 17 16 15 15 15 14 13 13 13 13 12 12 14 14 13 12 14 15 15 16 15 14 14 14 14 16 18 21 24 25 25 24 23 21 21 20 18 16 14 15 21 26 23 19 17 15 15 14 12 11 10 10 10 9 9 9 9 8 8 7
31 31 31 31 31 31 29 27 26 27 26 24 23 21 20 20 20 19 17 17 17 15 15 17 17 17 16 15 14 13 13 13 13 13 14 13 13 16 16 13 13 15 15 15 16 15 14 13 14 15 17 19 22 24 24 25 24 23 23 21 19 17 16 16 17 21 24 23 21 19 17 15 15 13 12 10 10 10 10 8 7 7 7 7 7
31 31 31 31 31 30 29 27 27 27 26 25 24 22 21 21 20 18 18 18 18 17 17 18 18 16 15 13 13 13 13 14 13 13 13 13 15 17 17 15 15 17 16 16 16 15 14 13 14 15 17 19 22 24 25 25 24 23 22 21 20 18 18 18 20 22 23 22 21 20 18 16 15 14 13 11 10 10 9 8 7 6 6 7 7
31 30 31 31 30 31 29 27 28 28 27 26 26 24 23 21 18 17 18 19 19 18 18 19 18 16 14 13 13 13 13 13 13 13 14 14 15 17 16 16 18 18 17 17 17 15 13 14 14 15 17 19 21 23 24 24 24 23 22 21 20 20 21 22 23 23 23 22 20 19 18 16 15 14 12 11 10 10 8 7 7 5 5 7 8
31 31 30 30 30 31 30 28 28 28 28 27 26 25 24 20 17 18 20 20 19 19 19 19 18 17 15 14 14 14 14 13 12 13 14 14 15 16 15 17 18 18 18 18 17 15 14 14 15 16 17 19 20 21 21 21 21 22 23 22 21 22 23 24 24 24 23 22 20 19 18 16 15 14 13 11 10 10 8 7 6 5 4 4 6
31 31 30 30 31 31 31 29 29 28 28 27 26 26 23 19 17 20 21 21 20 20 20 20 19 17 16 16 16 16 14 12 12 12 13 13 15 16 16 17 18 18 19 19 18 17 15 14 16 17 17 18 19 19 19 19 18 18 20 21 21 22 25 25 24 24 23 22 21 20 19 17 15 14 13 12 11 10 9 8 7 6 4 3 4
32 31 30 30 31 31 31 30 30 29 29 28 27 26 22 19 20 22 22 21 21 21 20 20 20 18 16 16 17 17 15 12 11 12 12 11 13 16 18 18 19 18 19 19 19 18 17 16 17 18 18 18 19 19 19 18 16 16 17 17 17 18 21 24 24 23 23 22 21 21 20 18 15 14 14 12 11 10 9 8 8 7 5 4 3
32 31 30 31 32 32 32 31 30 30 29 28 27 25 22 21 23 24 23 23 23 22 21 21 20 19 17 16 17 16 14 11 11 11 12 11 13 16 18 18 18 18 18 18 18 18 18 18 18 18 18 18 19 19 19 18 17 16 15 15 15 15 16 17 18 20 22 23 22 20 19 19 17 15 14 12 10 9 8 7 7 6 6 5 4
32 31 31 32 33 33 32 31 31 31 30 29 28 26 24 25 25 25 25 25 24 24 23 22 22 20 18 17 17 16 14 12 11 12 12 13 14 16 17 17 17 17 17 17 17 18 18 19 19 19 19 19 18 19 19 20 19 18 17 17 16 16 15 13 11 14 18 20 22 21 19 18 17 15 13 12 9 8 6 6 6 6 6 5 4
31 31 31 32 33 32 31 31 31 30 30 30 29 27 26 26 26 26 26 26 26 26 25 24 22 20 19 19 18 17 15 13 12 12 13 14 14 15 16 15 16 15 16 16 17 17 18 19 20 20 20 20 19 19 20 22 22 21 19 18 17 17 16 14 12 13 14 16 19 20 18 17 16 14 12 10 8 6 5 5 5 5 6 4 4
30 31 32 32 32 32 31 31 31 30 30 30 29 28 28 27 26 27 27 27 28 27 26 25 22 20 21 20 19 18 17 15 13 14 14 14 14 16 16 15 15 15 15 16 16 17 17 18 19 20 20 20 20 20 21 23 24 22 20 18 18 17 16 15 15 15 15 14 15 16 15 14 13 12 10 8 6 5 4 4 3 4 5 4 3
28 30 31 31 31 31 31 31 30 30 30 29 29 29 29 28 28 28 28 28 29 28 27 25 22 22 22 22 21 20 18 16 15 15 15 15 15 16 17 16 15 16 16 16 17 17 17 18 19 20 20 20 20 20 21 24 24 22 20 19 19 19 18 17 16 15 14 12 12 11 11 10 9 8 8 7 5 3 2 2 2 3 5 4 3
28 30 30 30 30 30 31 31 30 30 30 30 29 29 29 29 29 29 28 28 28 29 28 24 22 22 23 23 23 22 20 18 17 17 16 16 16 18 18 17 17 17 17 17 17 18 18 19 19 20 21 21 21 21 23 24 23 21 21 22 23 22 21 20 17 15 13 11 10 9 9 8 8 8 7 7 5 3 2 2 2 2 4 4 3
28 29 30 30 30 31 32 31 31 31 31 30 30 29 29 29 30 30 30 29 28 29 27 25 23 23 24 24 24 23 22 20 18 18 17 17 17 18 19 18 18 18 18 17 17 17 18 19 20 21 21 21 22 23 25 24 23 22 23 26 26 25 23 21 18 15 13 11 10 9 9 9 9 8 8 8 6 4 3 3 2 1 3 3 2
29 30 29 30 31 32 32 32 32 32 31 31 31 30 29 30 30 29 29 29 28 29 27 25 24 25 25 25 25 23 22 20 20 19 18 18 18 18 19 19 19 18 17 16 16 16 17 19 20 20 21 22 23 25 25 24 22 22 25 27 28 26 24 21 18 15 12 10 10 9 9 10 10 9 9 8 6 4 4 4 2 1 2 1 1
29 29 29 29 30 30 31 31 32 32 31 31 31 30 30 30 29 28 27 26 26 27 27 26 26 26 25 24 24 23 22 21 21 20 19 19 19 19 19 19 18 17 17 16 15 14 15 17 18 20 21 23 24 25 24 23 22 22 25 27 28 26 23 20 17 14 11 9 10 10 10 11 11 10 10 9 6 6 6 4 1 1 2 3 3
29 29 28 28 28 29 30 30 30 31 31 31 30 29 30 31 30 28 26 24 24 26 26 25 25 24 23 22 22 22 21 21 21 20 20 20 20 20 19 18 17 17 16 15 14 15 16 16 18 19 21 23 24 24 23 22 21 23 25 26 24 23 21 19 16 13 10 9 10 11 12 13 12 11 11 9 7 6 6 4 1 0 2 5 4
29 27 26 26 28 29 30 30 30 30 30 30 30 30 30 29 28 26 24 22 23 25 25 23 22 22 21 20 20 20 20 20 21 21 21 22 22 21 19 17 17 16 16 14 14 17 19 18 18 19 19 21 22 22 21 20 21 23 24 22 20 19 19 18 15 13 11 11 11 13 15 14 13 12 11 9 7 6 4 4 3 0 3 6 5
28 27 27 28 29 29 30 30 31 30 30 30 31 31 30 27 26 25 23 23 24 24 24 22 21 20 18 17 17 18 19 20 21 21 22 22 22 22 19 17 16 16 16 14 15 18 21 21 19 18 16 17 19 19 19 18 19 20 20 19 18 17 17 17 15 13 12 12 13 16 16 15 13 13 12 9 6 4 4 5 4 1 2 5 6
28 28 28 28 28 28 29 30 30 30 31 31 31 30 29 27 25 23 23 24 25 24 23 22 22 20 19 18 18 18 19 20 21 22 22 21 22 23 21 17 15 16 16 15 14 18 24 23 19 18 16 16 17 18 17 16 16 16 17 18 18 16 17 17 16 14 13 13 15 17 17 16 14 13 12 10 6 5 6 6 5 3 1 2 4
29 28 28 28 28 28 28 29 29 29 31 31 30 30 28 26 24 24 23 25 26 25 24 23 23 23 22 21 20 19 19 19 21 22 22 21 22 23 22 19 15 15 16 14 13 18 24 23 19 19 18 18 18 18 17 16 16 15 16 18 18 17 17 17 16 15 15 15 17 19 18 16 14 13 12 11 8 7 8 7 6 4 2 2 2
27 26 26 26 28 28 27 27 27 28 29 29 30 30 28 26 25 24 24 24 25 25 26 25 25 24 22 21 20 19 19 20 21 22 22 22 23 24 23 21 18 16 16 14 13 17 22 22 20 19 20 20 20 19 18 18 17 16 17 18 19 18 18 17 17 17 16 16 17 19 18 16 14 13 13 12 9 8 9 8 6 5 4 3 2
26 25 26 27 28 29 29 27 26 26 26 26 26 27 26 25 24 24 25 25 24 24 24 24 23 22 21 20 20 20 20 21 22 22 23 24 25 25 25 23 20 19 18 16 14 17 21 22 20 21 21 22 21 20 18 18 18 18 18 18 18 17 17 17 18 17 16 16 17 17 16 15 15 15 15 12 9 9 10 9 7 6 5 5 4
28 25 25 27 28 30 30 29 28 27 25 24 24 24 24 24 22 22 24 25 25 25 24 24 24 23 22 22 21 20 20 22 23 23 23 24 25 26 26 25 24 23 21 19 17 17 19 20 21 22 23 23 22 21 19 19 19 19 19 18 17 16 17 17 17 16 16 16 17 17 16 15 15 15 15 12 9 9 10 9 8 7 7 7 8
28 27 25 25 26 28 29 28 28 27 24 22 21 21 22 22 21 21 22 24 26 25 25 25 26 26 25 25 23 22 21 22 22 22 22 22 23 24 25 25 26 25 24 21 20 18 18 18 19 21 23 23 23 22 21 21 21 20 20 18 16 16 17 18 18 17 17 17 18 18 17 15 14 15 15 12 10 9 10 10 9 9 9 9 10
28 29 27 25 25 28 27 25 25 25 24 23 20 18 18 18 18 19 21 23 23 23 23 24 25 25 25 24 23 21 19 18 18 17 18 18 20 22 22 23 25 26 25 24 21 18 17 17 19 21 23 23 24 23 22 22 23 22 21 20 18 17 18 20 20 18 17 18 19 18 17 16 15 16 16 14 11 10 10 11 10 10 10 10 10
26 26 27 26 26 27 27 25 25 25 24 24 23 20 17 15 14 15 16 17 19 19 19 19 20 21 21 20 20 19 17 14 12 11 12 13 15 18 19 20 23 26 27 26 23 19 18 18 20 21 23 24 24 24 23 23 23 24 23 22 20 20 21 21 21 19 18 19 19 19 18 17 16 16 16 15 13 12 12 12 12 12 11 10 10
25 25 27 27 26 27 27 26 25 24 24 24 23 22 20 17 14 12 11 11 12 14 15 16 16 16 15 15 16 15 14 12 10 9 9 9 11 14 17 19 21 25 27 26 23 21 20 20 21 22 23 24 24 24 24 24 23 24 24 24 23 23 23 23 22 21 19 19 20 20 19 19 18 17 16 15 15 14 14 14 14 14 13 11 10
27 26 26 26 25 24 25 25 24 24 24 23 22 22 21 20 17 15 13 11 9 9 11 12 12 12 12 13 13 11 9 8 8 8 8 8 9 12 17 19 19 22 25 25 23 22 22 23 24 24 24 24 24 24 25 25 24 24 24 23 23 24 23 23 23 22 21 20 20 20 20 19 19 18 17 17 17 17 17 16 15 14 13 11 11
29 27 27 27 25 23 23 23 23 23 23 24 23 22 21 21 20 19 18 16 14 12 12 11 10 10 12 13 14 12 9 8 7 6 6 7 8 12 18 20 20 21 24 25 25 25 25 25 26 26 25 25 24 23 23 23 24 23 23 22 23 23 23 22 23 24 24 22 21 21 20 20 21 21 20 19 18 18 18 17 15 14 13 12 11
27 26 27 27 25 23 22 22 22 22 22 23 23 22 21 20 20 20 19 19 17 16 15 14 13 13 13 14 15 13 11 10 8 7 8 9 9 12 18 21 21 21 22 23 25 25 26 26 27 26 26 25 24 23 22 21 21 22 21 21 22 23 22 22 24 25 24 24 23 22 21 21 22 23 22 21 20 19 18 16 15 14 12 12 12
25 24 25 24 23 22 22 22 22 22 22 21 21 21 20 20 19 18 18 17 17 16 15 15 15 15 15 15 15 13 11 11 11 11 12 12 10 13 19 23 23 22 22 23 24 24 25 26 26 25 25 25 24 24 23 22 21 21 20 20 21 21 22 22 23 23 23 23 23 22 21 21 21 23 23 23 21 20 18 14 13 13 13 13 13
24 24 23 22 21 21 21 20 20 20 19 20 20 20 19 19 19 18 16 16 16 16 16 16 15 16 16 16 15 13 13 14 14 14 14 13 12 14 19 23 24 24 24 24 24 24 25 25 25 24 25 24 23 23 24 23 22 21 20 19 19 19 19 19 19 19 19 21 21 22 21 21 21 21 23 23 22 19 15 12 12 13 14 14 13
23 23 22 21 20 20 20 19 18 17 17 18 19 19 19 18 18 17 17 17 17 17 17 16 16 16 16 15 15 16 16 16 16 16 16 16 16 17 19 22 24 25 26 26 26 26 26 26 25 25 25 23 22 22 22 21 20 21 21 19 17 15 15 14 14 13 15 18 21 22 21 21 21 22 23 22 20 16 13 12 14 15 15 14 14
21 20 19 18 18 17 17 18 18 17 18 18 18 18 18 18 19 18 18 18 18 17 17 16 16 15 14 14 16 18 18 18 19 20 20 20 20 20 20 21 24 25 26 26 26 26 27 27 26 26 25 23 22 22 20 18 18 20 20 17 14 13 13 12 12 11 12 15 18 19 18 19 21 23 22 19 16 14 13 14 15 15 14 14 15
19 18 16 15 15 15 15 16 17 18 19 19 19 19 19 19 20 20 20 19 18 17 16 16 16 15 14 14 16 18 20 22 23 23 23 23 22 22 22 22 24 25 25 26 26 25 25 25 25 26 25 23 22 21 19 17 17 18 17 14 13 14 14 13 13 13 13 12 13 14 16 19 22 22 20 17 15 15 15 15 13 13 14 15 14
17 17 16 15 15 15 15 16 17 18 18 18 18 19 19 19 20 20 20 19 17 17 16 16 15 15 14 14 15 16 18 20 21 22 22 23 23 24 24 24 24 25 24 24 24 23 23 22 22 23 23 22 21 20 19 18 18 18 16 14 15 15 16 15 15 15 14 12 13 15 17 19 21 21 20 18 17 16 15 13 12 13 14 14 13
16 17 17 16 15 15 16 17 17 17 17 17 17 17 17 18 19 19 19 18 17 17 17 16 15 14 14 14 14 15 16 17 17 18 19 20 21 22 22 23 24 24 23 23 22 22 21 20 20 21 22 22 22 21 21 21 21 20 19 18 18 18 17 16 17 17 14 13 16 17 16 16 19 21 21 19 17 16 14 13 13 14 14 13 12
14 15 15 16 15 14 14 15 15 16 16 16 16 16 17 17 18 18 18 17 17 17 16 16 15 14 14 14 14 15 16 16 16 16 16 16 16 17 18 20 21 22 22 22 21 21 20 18 17 18 19 19 20 20 21 21 22 22 22 21 20 20 19 19 19 17 15 15 16 15 13 14 18 21 19 17 16 15 14 14 14 14 13 13 12
11 12 13 14 14 13 12 13 13 14 15 15 16 17 17 18 18 18 18 17 17 16 16 15 14 14 14 14 15 15 16 15 15 15 14 13 13 13 13 14 16 18 19 20 20 20 18 16 15 14 14 14 14 15 16 17 18 19 20 19 19 20 21 21 19 16 15 16 15 13 13 16 20 18 16 17 17 17 16 15 15 14 13 13 12
8 9 10 11 11 11 11 12 12 13 14 15 16 17 17 17 18 18 18 17 17 16 16 15 14 14 14 14 14 14 14 14 14 14 13 12 11 10 9 10 11 12 14 16 17 17 15 13 11 10 9 9 9 10 11 12 14 15 16 17 18 20 20 19 17 15 15 15 14 13 16 18 16 14 17 20 21 19 16 15 14 13 13 12 11
6 6 7 8 9 9 9 10 11 12 13 14 14 16 16 17 17 18 17 17 17 16 16 15 14 14 14 14 13 13 13 13 13 13 12 11 9 7 6 6 6 7 8 10 11 11 11 9 8 7 7 7 7 9 11 12 14 16 17 18 20 21 19 18 16 15 14 14 14 14 14 12 13 18 21 21 20 16 14 13 13 12 11 10 9
6 5 5 6 7 7 8 9 10 10 11 12 12 13 14 15 16 16 16 16 16 16 15 15 15 15 14 14 13 13 13 12 12 11 10 8 6 4 4 3 4 4 4 5 7 7 7 7 7 7 8 9 10 12 14 16 17 19 19 21 21 20 17 15 13 12 12 12 12 10 8 11 16 20 20 17 14 14 13 12 12 11 10 9 8
6 5 5 5 5 6 6 7 8 9 10 10 11 11 12 13 14 14 14 14 15 14 14 14 15 15 14 13 13 12 12 11 10 9 8 7 5 4 4 3 3 4 4 5 6 6 6 7 8 9 10 12 13 14 15 17 18 18 19 19 18 17 14 11 10 11 11 9 6 6 11 15 16 16 15 13 13 13 12 11 11 10 9 8 8
6 5 4 3 3 3 3 4 6 7 8 9 10 10 10 11 12 12 12 13 13 13 14 14 14 14 14 13 12 11 11 11 10 9 8 7 6 5 4 4 4 5 5 5 6 6 7 8 10 11 12 13 14 14 14 14 15 14 14 13 11 10 8 8 11 12 9 4 6 10 13 13 12 12 13 13 13 12 11 10 9 9 8 8 8
6 6 5 4 3 2 1 2 3 5 6 7 9 9 9 10 11 11 12 13 13 13 14 14 14 14 13 11 10 10 11 11 10 9 8 7 6 5 5 5 5 5 5 5 6 7 8 9 10 12 13 13 12 11 10 10 10 9 8 8 10 11 10 9 9 8 7 10 11 10 10 11 11 12 13 13 12 11 10 9 8 8 8 8 8
7 6 5 4 4 3 2 1 1 3 5 6 7 8 9 9 10 11 12 12 13 13 13 12 12 12 12 10 8 8 9 10 10 9 8 8 7 6 6 6 6 6 5 5 5 7 7 8 9 10 11 11 9 7 6 4 5 8 11 13 13 11 7 3 4 7 10 11 10 10 10 11 12 12 13 11 10 9 8 8 8 8 8 8 8
Wind_Direction
192 191 192 196 198 199 200 202 201 201 202 205 208 209 211 218 224 224 223 223 224 226 227 219 199 190 196 198 190 189 191 187 186 189 194 194 184 177 181 184 186 184 179 180 182 188 193 190 185 181 177 177 179 181 180 178 177 176 177 177 170 167 163 146 130 133 150 159 160 161 163 162 161 159 151 140 125 113 102 82 69 69 76 80 73
189 189 189 192 196 197 198 198 198 199 200 203 205 205 208 215 218 217 216 216 219 225 226 215 193 181 180 182 184 187 189 188 189 192 196 190 176 173 181 184 186 183 178 179 181 184 189 185 178 176 177 176 176 179 180 177 178 178 178 178 169 165 165 151 139 138 145 156 161 163 167 168 162 156 152 144 132 126 114 88 74 72 75 80 85
186 185 186 189 193 194 195 194 194 196 197 199 200 201 206 210 211 211 211 210 211 217 219 209 193 182 174 172 176 182 185 189 193 192 192 189 179 175 181 185 187 183 180 181 181 181 182 178 173 172 176 175 174 177 179 179 180 180 178 177 170 166 168 164 152 146 145 151 160 162 163 163 156 150 148 143 134 133 122 95 83 80 78 81 90
182 182 183 185 189 190 190 191 191 193 195 196 197 198 201 203 205 207 206 203 202 203 202 197 192 189 181 174 176 182 185 186 188 188 190 190 183 178 181 189 193 189 186 184 180 180 179 174 170 173 176 173 170 174 177 178 181 180 175 172 171 167 165 168 168 159 151 149 154 157 155 150 146 143 142 140 139 138 126 103 91 85 79 80 88
178 179 180 181 183 185 185 187 190 192 192 193 195 195 196 199 202 202 200 197 196 194 188 184 188 191 188 184 184 186 187 186 186 187 187 185 183 178 178 188 199 195 190 186 180 179 179 173 169 174 178 172 167 170 174 176 177 176 170 167 167 165 161 163 168 164 156 149 148 150 149 145 141 140 140 142 143 141 127 110 99 90 84 85 87
176 176 178 178 179 180 182 185 189 191 191 192 193 191 193 196 196 195 196 194 190 189 185 183 186 191 191 190 191 191 190 189 187 187 187 183 180 179 176 180 195 197 191 186 182 179 180 176 173 176 179 173 167 168 170 171 170 168 165 162 161 159 157 159 162 160 155 148 144 145 146 146 141 137 138 142 144 140 131 120 108 99 94 91 89
174 175 176 177 177 178 180 185 189 189 189 190 189 189 191 193 193 193 194 192 188 187 186 184 186 192 195 195 197 198 193 189 188 189 190 185 181 182 181 180 188 193 190 186 183 180 179 178 177 178 179 174 167 166 166 165 164 163 161 159 157 155 153 155 157 155 150 145 143 144 144 145 144 138 135 139 138 132 131 128 115 106 96 85 83
173 174 175 175 176 178 179 184 188 187 188 188 186 186 187 188 190 193 192 190 189 189 187 187 188 193 198 198 198 199 193 190 192 190 189 187 186 188 188 187 187 186 185 184 181 177 177 179 180 180 179 175 170 168 167 165 161 159 159 159 158 155 154 154 154 153 149 144 142 143 142 142 143 140 137 141 135 121 122 124 115 108 96 78 70
172 174 175 175 176 176 176 181 186 186 186 185 183 184 183 182 189 194 191 188 189 190 191 191 191 193 195 195 196 196 193 194 197 195 193 192 190 190 189 189 188 184 182 181 179 175 174 176 180 180 179 177 174 173 173 172 168 163 160 161 160 157 155 155 155 153 149 144 142 143 141 139 142 143 140 139 130 118 116 117 111 110 108 83 61
172 173 174 175 175 174 175 179 183 183 183 182 182 182 180 181 190 191 187 186 188 190 191 192 194 195 191 192 194 193 191 197 202 201 200 197 193 191 190 190 189 187 184 180 178 176 172 173 179 180 178 176 177 177 176 177 178 173 167 167 166 161 157 157 158 156 152 147 146 146 142 139 145 148 142 133 124 117 114 113 112 114 114 99 60
172 173 174 173 173 172 172 176 180 181 181 181 181 180 179 184 190 187 184 185 187 191 193 193 195 196 194 194 195 192 192 198 202 200 200 202 198 193 191 190 189 188 187 182 179 177 174 175 179 181 179 176 176 178 178 177 179 176 172 175 177 171 164 160 160 160 156 150 150 151 147 143 147 149 143 136 127 120 116 110 106 102 86 65 32
172 173 173 172 173 172 171 174 177 179 180 180 179 180 181 185 186 184 185 186 187 191 193 194 195 197 198 199 199 197 197 199 199 198 199 202 200 194 191 191 190 188 189 187 183 181 179 179 180 182 183 180 176 176 176 176 176 175 173 178 182 182 175 168 165 167 162 155 152 154 151 146 148 150 147 142 133 124 118 106 94 85 65 45 19
171 171 171 171 172 171 171 174 176 177 179 179 180 180 181 183 184 185 186 187 189 191 192 194 196 197 199 203 203 202 200 197 198 201 201 200 200 199 197 196 195 194 194 194 191 189 186 184 183 183 184 183 180 177 176 175 175 175 176 179 180 180 179 176 176 176 169 158 153 153 152 150 151 152 151 147 140 130 118 99 86 71 51 34 24
169 169 170 172 172 171 172 175 177 177 178 179 179 179 180 182 184 185 186 187 189 189 190 193 195 198 203 204 205 205 201 197 198 201 202 202 202 203 203 201 200 200 200 201 201 197 195 192 188 185 185 187 186 183 181 179 177 176 178 180 180 179 177 173 168 166 164 157 151 148 150 151 151 150 149 147 142 136 121 97 83 61 39 23 23
169 169 171 172 171 170 173 176 177 177 177 178 178 178 182 184 184 185 188 190 190 189 190 193 195 200 205 204 205 207 203 198 200 202 203 205 205 205 205 203 202 202 203 204 205 204 203 201 197 193 191 190 191 190 188 184 180 177 178 179 178 175 170 163 157 152 149 146 141 140 144 149 150 151 151 150 147 143 125 96 81 52 32 16 25
168 168 170 171 170 170 174 176 176 176 177 178 177 177 180 184 185 187 188 189 190 191 192 194 196 201 204 204 206 208 203 199 201 203 204 207 206 205 205 203 202 202 203 205 207 208 208 208 206 203 199 195 195 195 191 185 180 176 176 175 172 167 159 153 149 146 144 144 143 146 150 155 162 167 166 169 171 163 139 110 88 45 21 6 20
168 169 170 171 171 174 178 178 176 177 178 178 177 178 181 184 185 187 186 184 186 189 191 192 197 204 206 206 207 207 202 198 201 204 205 207 206 205 203 202 200 202 205 207 210 212 213 213 212 210 205 199 195 192 189 186 181 176 173 170 164 160 156 154 154 155 157 161 163 169 175 177 182 187 186 187 188 180 168 140 102 35 11 360 356
169 171 173 173 174 178 181 179 178 178 179 178 178 180 182 184 183 185 186 184 186 191 192 192 198 206 208 207 209 208 201 196 199 204 205 207 208 205 203 202 200 201 205 209 213 216 216 215 214 211 207 201 194 189 188 189 185 180 175 169 164 163 163 164 166 169 171 175 179 185 192 192 190 194 193 191 191 189 181 156 127 5 351 348 319
171 172 173 174 175 179 181 181 181 180 179 180 181 181 181 181 182 183 186 187 190 192 193 195 200 205 207 208 209 208 201 196 198 203 205 206 207 205 204 204 202 201 204 209 213 215 217 215 211 210 208 202 195 190 190 193 193 187 181 174 170 171 172 172 175 178 180 186 190 193 196 192 189 191 191 189 192 191 182 161 140 318 314 281 245
171 172 173 175 177 180 182 183 182 180 180 180 179 179 180 179 179 181 185 189 193 193 194 198 201 201 203 206 208 208 203 198 198 201 204 207 207 205 205 206 206 204 205 207 205 206 212 213 209 207 207 203 197 193 193 197 199 194 189 184 179 178 177 177 181 184 187 195 199 197 193 188 186 188 189 191 195 191 186 174 144 305 253 197 188
168 170 173 176 178 181 183 183 181 181 182 180 176 177 179 177 177 181 184 188 192 193 194 197 198 197 200 204 206 206 204 200 198 199 203 206 206 206 206 210 214 211 204 201 202 206 211 212 207 204 203 201 199 198 197 201 204 201 197 193 189 184 181 183 187 191 196 203 205 199 190 185 186 190 193 197 200 199 200 197 180 296 206 186 180
167 171 176 178 179 180 182 182 181 180 180 177 174 175 177 177 179 183 184 187 192 194 194 194 192 192 195 200 203 204 202 201 201 201 201 203 206 209 212 215 218 214 206 207 216 218 213 205 199 198 199 200 202 202 200 200 202 201 198 196 194 191 189 192 196 199 202 206 205 197 189 186 189 193 197 199 202 208 212 200 182 164 211 202 192
168 173 176 176 176 178 179 179 180 179 178 176 175 175 176 178 181 184 185 187 189 190 190 190 188 186 186 190 198 203 200 199 201 203 203 203 207 213 217 220 219 217 220 232 236 222 206 195 190 189 190 194 196 194 193 194 194 195 197 198 199 200 201 203 205 205 208 208 203 195 190 190 193 197 200 202 206 215 214 199 187 162 223 225 218
168 170 172 173 173 175 176 176 177 178 177 177 175 172 173 177 180 184 186 185 184 185 186 186 185 184 184 186 191 198 199 198 200 203 205 206 209 213 219 222 221 221 231 248 247 219 201 194 190 186 185 191 195 193 196 200 201 201 204 204 205 208 211 213 213 211 212 210 203 197 194 194 196 200 202 203 211 225 222 210 201 187 191 254 238
167 167 169 171 172 173 172 173 175 176 176 177 175 171 171 174 177 180 183 182 182 183 185 187 188 189 189 187 186 189 195 197 197 200 205 210 212 214 219 223 225 226 232 246 246 221 205 198 196 194 195 201 205 205 210 215 215 215 215 213 214 218 221 223 221 216 215 214 207 202 200 199 199 201 202 201 209 223 222 213 207 207 234 284 239
164 165 166 167 169 169 167 168 172 174 176 178 176 174 175 178 178 180 182 183 184 186 186 189 192 191 188 184 182 185 191 195 197 199 204 211 214 214 217 222 228 232 234 240 242 226 212 206 204 205 206 209 211 213 218 222 223 224 223 221 222 224 225 227 224 219 219 218 212 207 204 204 204 203 201 200 207 217 216 212 212 218 249 286 248
162 164 166 166 166 165 164 165 167 170 174 176 174 174 178 181 180 181 182 183 184 187 188 189 189 187 184 181 183 187 191 193 197 201 207 212 214 214 216 221 226 228 228 231 232 224 218 216 217 218 217 215 215 218 223 226 226 226 225 223 224 225 228 229 226 223 224 221 215 210 207 208 210 208 203 204 212 218 216 218 226 231 248 282 287
162 161 162 162 161 162 164 165 167 168 172 175 175 175 179 183 186 190 192 191 190 190 190 191 192 192 189 184 182 183 188 195 201 207 214 217 216 214 217 221 223 223 223 223 222 221 226 230 230 226 222 218 217 220 225 225 224 223 223 222 223 226 228 226 223 224 225 220 215 209 206 210 215 212 206 206 213 219 221 224 234 245 256 277 291
156 153 155 157 158 160 163 164 165 166 167 170 173 176 180 187 194 199 201 203 203 203 201 201 202 202 199 194 189 185 190 203 212 217 223 226 225 224 224 224 224 224 222 219 219 224 230 234 232 226 220 217 217 220 222 222 220 220 221 221 224 229 229 225 222 223 221 216 212 211 211 215 216 211 207 209 213 218 224 231 240 255 270 281 287
150 151 156 159 159 159 160 163 166 168 168 169 169 169 176 186 196 199 200 203 207 211 212 212 211 210 207 205 204 202 207 216 221 224 230 234 236 238 237 234 231 227 221 216 220 227 229 228 227 224 218 215 215 218 221 221 221 221 222 223 227 232 233 230 226 224 221 216 213 213 217 219 218 213 212 217 221 223 229 238 249 262 278 287 283
148 152 156 158 158 159 163 167 170 171 172 172 170 166 164 170 183 194 200 204 208 212 215 217 219 219 216 214 211 211 217 224 225 227 234 240 243 243 239 235 233 229 222 217 219 224 224 222 221 220 218 217 219 222 225 226 226 227 228 228 232 235 236 233 228 224 222 219 216 216 220 223 223 222 222 225 228 231 238 248 258 267 279 285 277
151 153 157 161 164 165 167 169 169 169 169 170 169 166 159 154 155 167 184 198 208 214 217 218 220 220 222 221 215 211 217 227 229 228 230 237 245 244 236 230 228 226 223 220 219 221 220 218 219 221 219 219 223 227 230 231 233 234 232 232 235 237 238 235 229 224 223 222 220 221 223 226 229 231 233 235 235 238 246 255 262 269 278 278 268
156 157 160 164 166 167 167 166 167 169 170 169 169 167 163 158 152 152 157 166 178 194 207 214 216 214 213 213 209 206 212 220 220 222 228 237 245 240 230 222 219 219 219 218 218 219 219 219 222 225 224 225 229 232 233 234 236 237 236 236 238 240 241 237 230 225 224 225 226 227 229 231 234 236 239 244 245 247 253 259 263 268 271 268 260
161 163 165 166 168 169 169 168 169 171 172 173 172 170 170 170 166 159 154 154 160 173 184 191 198 202 202 202 202 203 205 203 201 211 230 243 245 232 222 215 212 215 219 219 219 219 219 220 223 227 229 231 233 235 236 236 237 238 239 238 239 241 242 237 231 228 228 227 230 233 236 238 239 239 241 246 249 252 256 259 263 266 265 260 256
162 165 169 171 172 172 172 172 174 174 173 174 174 172 172 173 172 169 166 165 167 173 179 180 184 191 196 199 203 208 210 205 202 209 228 243 242 224 214 211 210 211 213 215 218 220 221 223 226 229 231 233 235 237 238 239 239 239 238 238 240 241 241 238 233 231 230 231 234 238 243 246 245 242 243 246 249 253 257 259 262 266 266 261 257
161 165 169 172 174 174 174 175 177 177 176 174 174 174 174 173 173 173 174 176 176 178 182 186 188 191 197 202 206 210 211 208 207 214 229 243 240 218 208 208 210 210 210 212 216 221 225 228 231 233 234 236 238 241 242 242 241 241 241 243 246 244 241 238 235 233 233 235 238 242 248 252 248 242 241 244 248 252 256 261 266 270 267 261 257
162 165 169 173 174 173 172 174 175 176 176 173 172 173 173 174 175 175 175 179 183 186 189 191 191 194 201 205 204 203 206 210 213 220 231 239 236 224 215 212 212 213 215 218 220 223 226 230 234 236 238 239 240 242 244 245 244 244 247 252 253 250 244 240 236 236 237 240 244 249 252 252 249 242 239 241 246 248 251 260 270 269 261 254 253
163 165 167 170 171 169 168 170 172 173 171 170 172 173 171 172 175 177 179 182 186 190 192 193 195 200 204 204 200 200 206 213 217 222 227 229 227 223 220 218 218 219 222 225 227 229 231 233 234 237 241 242 240 242 246 247 243 244 251 256 254 246 238 231 230 237 244 245 247 248 247 245 243 239 237 240 243 244 248 263 269 261 251 248 251
159 161 163 164 165 166 167 168 169 170 169 169 172 173 172 173 175 178 181 185 188 190 192 195 201 207 206 201 198 201 207 213 219 222 225 226 225 223 220 220 223 225 228 231 233 234 235 236 238 240 241 239 238 241 245 244 241 245 253 256 247 233 227 227 236 250 255 249 243 241 240 240 238 236 234 236 237 240 252 263 261 251 246 251 254
153 154 157 160 162 164 168 169 170 171 171 171 173 175 176 177 179 182 186 188 189 192 197 202 208 211 208 205 205 206 209 215 220 224 226 227 227 224 222 222 225 228 231 233 235 237 239 241 242 243 241 239 239 242 242 241 243 251 256 249 237 234 238 242 249 258 259 251 239 236 240 241 235 229 227 227 231 243 255 257 250 245 250 254 251
148 150 156 163 165 166 169 172 173 175 175 175 177 179 181 184 186 188 190 191 194 199 205 210 214 215 213 213 215 215 218 222 226 229 232 233 232 229 227 227 229 231 233 236 238 240 241 242 243 243 242 242 242 242 241 243 248 254 254 246 241 246 251 251 255 261 260 246 234 238 246 243 232 224 222 224 230 241 247 245 241 245 250 248 245
151 153 158 165 169 171 173 174 175 177 179 180 182 184 187 190 193 194 196 197 201 206 210 213 216 216 215 217 219 220 223 228 232 235 238 238 238 237 235 234 234 234 237 240 243 245 245 245 244 243 243 246 248 248 249 251 253 254 256 255 253 254 257 259 259 259 252 236 232 240 247 240 226 220 219 224 232 237 236 236 240 244 243 242 244
155 157 162 169 173 177 179 178 178 180 183 186 189 192 194 197 199 200 202 203 206 210 213 215 216 216 216 217 219 220 223 227 233 239 242 243 245 246 246 245 243 242 242 244 247 249 250 250 249 249 249 251 253 254 255 257 259 260 261 260 257 257 260 260 256 251 243 233 233 239 240 229 220 217 221 228 233 233 232 234 237 238 239 241 243
158 161 167 173 178 182 186 187 188 190 191 193 196 198 200 202 201 202 204 207 210 213 216 216 217 218 218 216 216 218 222 227 234 241 247 251 255 257 257 255 252 247 244 245 248 249 249 249 251 252 253 253 254 256 257 258 259 259 258 257 257 258 256 250 245 242 236 231 231 233 227 215 210 214 227 236 233 229 229 231 232 234 237 238 236
155 164 172 178 183 189 191 194 198 199 197 196 197 199 201 203 204 205 207 209 213 216 217 218 220 220 219 217 218 220 225 231 238 244 248 252 257 261 261 257 253 247 243 243 246 249 251 253 255 255 256 257 258 258 255 251 250 252 253 256 260 260 253 245 238 232 228 229 232 226 213 207 211 227 239 236 229 226 227 230 232 235 236 234 234
136 152 169 180 188 193 196 199 202 202 200 198 198 199 201 204 207 209 210 212 216 219 219 219 220 221 221 221 222 224 228 233 239 244 248 250 257 268 271 267 263 256 249 247 248 250 251 253 254 256 259 261 259 257 254 251 252 255 257 261 264 262 253 243 236 229 225 225 220 207 200 212 240 250 242 230 222 222 226 231 235 236 234 234 236
113 132 153 171 184 193 199 203 204 205 205 206 206 205 206 207 209 211 213 215 218 221 221 221 223 224 224 225 225 226 230 235 238 242 246 248 255 267 276 279 281 277 267 261 258 255 252 254 256 259 260 260 260 259 256 254 256 260 263 265 262 252 240 232 230 224 213 205 197 196 222 257 254 242 231 221 219 224 232 235 235 234 232 234 234
97 113 136 155 169 181 189 195 200 203 205 208 210 212 212 212 212 213 214 216 218 222 223 223 225 226 227 228 230 230 231 234 237 240 244 244 243 243 249 261 274 278 274 270 263 257 255 255 255 255 257 256 255 253 253 256 260 260 256 251 242 228 218 216 207 187 174 169 181 234 264 265 250 232 223 222 226 232 236 235 232 231 231 231 227
88 88 98 117 136 161 181 192 200 204 205 206 208 210 212 213 213 214 214 216 218 221 222 224 226 229 230 230 231 231 231 232 235 238 241 243 240 235 232 240 245 247 250 252 249 242 237 236 237 243 247 247 246 251 258 262 257 245 234 226 212 195 183 177 168 163 167 215 268 260 250 243 230 221 221 225 229 233 233 229 228 231 230 225 218
84 85 87 92 98 112 157 189 202 210 212 212 212 210 211 213 214 214 214 215 217 219 223 226 230 232 231 228 227 229 231 231 232 236 241 246 245 238 234 234 230 222 219 223 226 226 228 231 235 240 242 241 243 253 262 256 238 219 196 164 142 134 131 135 147 171 223 258 261 246 229 216 212 214 219 224 228 229 226 223 226 229 225 218 214
81 87 91 90 86 84 87 119 198 211 214 214 214 215 215 215 215 214 215 217 219 222 227 232 236 236 232 227 228 235 239 238 237 239 242 245 241 234 227 221 211 203 209 222 220 214 220 232 240 241 241 241 245 255 259 231 181 152 135 126 121 117 114 135 199 223 234 235 229 217 209 209 213 218 222 223 224 223 222 223 225 222 216 212 212
Height
747 751 755 759 763 766 769 771 774 777 779 782 784 786 789 791 794 796 798 800 802 804 806 807 809 811 813 814 815 816 818 819 820 821 822 824 824 825 826 827 829 830 830 830 830 831 832 833 833 833 833 834 835 836 838 840 843 845 847 848 850 851 852 854 858 864 868 870 872 873 874 875 875 875 874 874 874 875 875 874 872 871 872 872 873
746 749 753 757 761 764 767 770 773 775 778 780 783 785 787 790 793 795 797 799 801 803 805 807 808 810 812 814 816 818 818 819 821 821 823 824 824 825 827 828 828 829 830 830 830 831 832 833 833 833 834 834 835 837 838 840 843 845 847 848 850 851 852 854 857 862 866 869 871 872 873 874 873 873 873 873 874 874 874 873 872 872 872 873 873
744 747 751 756 760 763 766 769 771 774 776 779 781 783 786 789 792 794 797 799 801 803 805 806 808 810 812 814 816 818 819 819 821 822 822 824 824 825 827 828 829 829 830 831 831 831 832 832 833 833 834 835 836 837 839 841 843 845 847 848 849 851 852 853 856 860 864 868 870 871 872 872 872 872 873 873 873 874 874 873 872 872 873 874 874
743 746 750 755 758 762 765 767 770 772 775 777 779 782 785 788 791 794 796 798 800 803 805 807 809 810 812 814 815 816 818 819 821 822 822 823 824 824 826 828 829 829 830 830 831 832 832 832 833 834 834 835 836 838 839 841 843 845 846 848 849 851 853 854 855 858 862 865 869 870 871 871 871 871 872 872 873 873 873 873 872 873 874 874 874
741 745 749 753 757 760 763 765 768 770 773 776 778 781 784 787 790 793 795 797 799 802 804 807 809 810 811 813 814 815 817 818 820 821 822 823 824 824 826 828 829 830 830 831 831 832 833 833 834 834 835 835 836 838 839 841 843 845 846 848 849 851 853 854 856 858 860 864 867 869 870 870 870 871 871 872 873 873 873 872 873 874 874 875 875
740 743 748 751 755 758 760 763 766 769 771 775 777 780 783 786 789 791 794 796 799 801 804 806 808 810 811 813 814 815 816 818 818 820 821 822 823 824 825 826 829 830 831 832 832 833 833 834 835 836 836 836 836 838 840 841 843 845 846 848 850 851 853 855 857 859 861 863 865 867 868 869 869 870 871 872 872 872 872 872 873 874 875 875 875
738 742 746 749 753 756 758 761 765 768 770 773 776 779 782 785 788 790 793 796 798 800 803 805 808 809 811 812 814 814 816 817 818 819 820 821 822 824 824 825 827 830 831 833 833 833 834 835 836 837 837 837 838 839 840 842 843 845 846 848 849 851 853 856 858 860 862 863 864 866 867 868 869 869 870 871 871 872 872 872 873 874 875 875 875
737 741 745 748 751 754 756 760 764 767 770 772 775 778 781 784 787 790 792 795 797 799 802 804 807 809 811 812 813 814 815 817 818 819 820 821 822 824 824 825 827 829 831 832 833 834 834 836 837 838 839 839 839 840 841 842 843 845 847 848 850 851 853 856 858 860 862 863 864 865 866 867 868 869 870 871 871 871 872 872 873 874 874 875 875
735 740 743 746 750 752 755 759 763 766 769 771 774 777 780 783 786 789 792 794 797 799 801 804 806 808 810 811 812 814 815 816 818 819 820 822 823 824 825 826 827 829 831 833 834 834 835 836 838 838 839 840 841 842 843 843 844 845 847 848 850 852 853 856 858 860 861 862 863 864 865 866 867 868 869 870 871 871 871 872 872 873 874 874 874
734 738 741 745 748 751 753 757 761 765 767 770 773 776 779 782 785 788 791 793 796 798 801 803 805 807 808 810 811 813 815 816 817 819 820 822 823 824 825 826 828 829 831 832 833 834 835 837 838 839 840 841 842 843 844 845 845 846 847 849 850 852 853 855 857 859 860 861 862 863 864 866 867 868 869 870 870 871 871 871 872 873 874 874 874
732 736 740 743 746 749 752 755 760 763 766 769 772 774 777 780 784 787 789 792 795 797 799 802 804 806 808 809 810 812 814 816 817 819 820 821 823 824 825 827 828 830 831 832 833 834 836 837 838 839 840 841 843 844 845 846 847 848 849 850 851 851 852 854 857 858 859 860 862 863 863 865 867 868 868 869 870 870 871 871 871 872 873 874 874
730 734 738 741 745 748 750 753 758 762 764 768 771 773 776 779 782 785 788 790 793 796 798 801 803 805 807 808 810 811 813 815 816 818 819 821 822 824 825 827 829 831 832 833 833 834 836 837 838 840 841 842 843 844 845 846 848 849 850 851 852 852 852 853 855 857 858 859 861 862 863 864 866 867 868 868 869 870 870 871 871 872 873 873 874
729 733 736 740 743 746 748 752 757 760 763 766 769 772 775 777 780 783 786 789 792 794 797 799 802 804 806 807 809 810 812 814 816 817 819 821 822 824 826 827 829 830 832 832 833 834 835 837 838 840 841 842 843 844 845 847 848 849 851 852 853 853 854 855 855 856 857 858 860 862 863 864 865 867 867 868 869 870 870 871 871 872 872 873 873
727 731 735 739 741 743 747 751 756 759 761 765 768 770 773 776 779 781 784 787 790 793 796 798 801 803 805 807 808 810 812 814 815 817 818 820 822 824 825 827 829 830 831 832 833 835 836 837 838 840 841 842 844 845 846 847 848 849 851 852 853 854 855 856 857 857 858 859 860 861 863 864 865 866 867 868 869 870 870 871 871 871 872 872 872
726 730 734 737 740 742 746 751 755 758 760 764 767 769 772 775 778 780 783 786 789 792 794 797 800 802 804 806 807 809 811 813 815 817 818 820 822 824 825 827 829 830 832 833 834 835 836 838 839 840 841 842 844 845 846 847 848 849 851 852 853 854 855 856 858 859 860 861 862 862 864 865 866 867 867 868 869 870 870 870 870 871 871 871 871
726 729 732 736 738 741 745 750 753 756 759 763 766 768 770 773 776 779 782 784 787 790 793 796 798 801 803 805 807 808 810 813 814 816 818 820 822 823 825 827 828 830 831 833 834 835 837 838 839 840 841 842 844 845 846 847 848 849 850 852 853 854 856 857 859 860 861 862 863 864 865 866 866 867 867 868 869 869 870 870 870 870 870 870 870
725 728 731 734 737 740 745 749 752 755 758 762 764 767 769 772 774 777 780 783 786 789 792 795 798 800 802 804 805 807 809 812 814 816 818 819 821 823 824 826 827 829 830 832 833 835 836 837 838 840 841 842 843 845 846 847 848 849 850 851 853 854 856 857 859 860 861 862 863 864 865 866 866 867 867 868 868 869 869 869 869 869 869 869 869
724 727 730 733 736 740 744 747 750 754 757 760 763 765 768 770 773 775 779 782 785 788 791 794 796 799 800 802 804 805 808 810 813 815 817 819 821 822 824 826 827 828 830 831 833 834 835 837 838 839 840 842 843 844 845 847 847 848 849 850 852 853 855 857 858 860 861 862 863 864 864 865 865 866 866 867 867 868 868 868 868 867 868 868 868
723 726 729 732 735 739 743 745 748 752 755 758 761 764 766 769 772 775 778 781 784 788 790 793 795 798 800 802 803 805 807 809 812 814 816 818 820 822 824 826 827 828 830 831 832 834 835 836 837 839 840 842 843 844 845 846 847 848 849 850 851 852 854 856 857 859 860 861 862 863 863 864 865 865 865 866 866 866 867 867 867 866 866 866 867
722 726 729 732 736 739 742 744 747 751 754 757 760 763 766 768 771 775 779 781 784 787 790 792 794 796 799 801 802 804 806 808 811 813 815 817 819 822 824 825 827 828 829 830 831 833 835 836 837 838 840 841 843 844 845 846 847 848 848 848 849 851 853 855 857 858 860 860 861 862 862 863 863 864 864 865 865 865 866 866 866 865 865 866 866
723 726 730 733 736 739 741 744 747 751 754 756 759 763 766 768 771 774 778 781 784 787 789 791 793 796 798 800 801 803 805 807 809 812 814 816 818 821 822 824 826 827 828 829 830 832 833 835 837 838 839 841 842 843 845 846 847 847 848 848 850 851 853 855 856 857 859 859 860 861 861 862 863 863 863 864 864 865 865 865 865 865 865 865 865
723 726 730 733 737 739 742 745 748 751 754 756 759 763 766 768 770 773 776 779 782 786 788 791 793 795 797 799 801 802 804 807 809 811 813 816 818 820 821 823 824 826 828 829 830 830 831 834 836 837 838 840 842 843 844 846 846 847 848 849 851 852 853 854 855 857 857 858 859 859 860 861 862 862 862 863 863 864 864 865 865 865 865 865 865
723 726 730 734 737 739 742 745 748 750 753 756 758 761 764 767 770 773 775 777 781 785 787 790 792 794 796 798 800 801 803 806 808 810 812 815 817 818 820 822 823 825 826 827 828 829 831 833 835 837 838 840 842 843 845 845 846 847 849 850 851 852 853 854 855 856 856 857 857 858 859 860 861 861 862 863 863 864 864 864 864 864 864 864 864
723 726 730 734 737 740 742 745 748 750 753 756 758 760 763 766 769 772 774 776 780 783 786 788 791 793 795 797 798 800 802 804 806 809 811 813 815 817 819 821 822 823 825 826 826 828 831 833 835 836 838 841 843 844 845 846 846 847 849 849 851 852 852 853 854 855 855 856 856 857 858 859 860 860 861 862 862 863 863 863 863 863 863 863 863
723 727 731 734 737 740 743 746 748 750 753 756 758 760 763 766 769 772 774 776 778 781 784 787 788 790 792 794 796 798 800 803 805 808 810 812 814 815 817 819 820 822 823 825 826 827 830 832 834 835 837 840 842 843 844 845 846 847 848 849 850 851 852 853 853 854 854 854 855 856 857 858 859 859 860 861 861 862 862 862 862 862 862 862 862
723 728 731 735 737 741 744 746 749 752 754 757 758 759 762 766 768 771 774 776 778 780 782 784 786 788 791 793 795 798 800 802 804 806 808 810 812 814 815 817 819 821 822 824 825 827 829 831 833 834 836 838 840 841 843 844 845 846 847 848 849 850 851 852 852 853 853 854 854 855 856 857 858 858 859 859 860 860 861 861 861 862 862 861 861
723 728 731 734 738 740 743 746 749 752 755 758 759 761 763 766 768 770 773 775 777 779 781 783 785 787 790 792 795 797 798 800 802 804 806 808 810 812 814 815 817 819 821 823 824 826 829 830 832 833 835 836 838 839 841 842 843 844 845 846 848 849 850 851 852 852 853 853 854 855 855 856 857 857 857 858 859 859 860 860 860 861 861 860 860
722 727 731 734 737 739 742 745 748 752 755 758 760 762 764 766 768 769 771 773 775 777 780 782 784 786 788 791 793 796 798 799 800 802 804 806 808 810 812 814 816 817 819 821 823 825 827 829 830 831 833 835 836 838 839 840 841 843 844 845 847 848 849 850 851 851 852 852 853 854 854 855 855 856 856 857 857 858 858 859 859 859 859 859 859
721 726 731 735 737 739 741 745 748 751 754 757 760 762 764 766 767 768 770 772 773 775 777 780 782 784 786 789 791 794 796 797 798 800 802 804 806 808 809 811 813 815 817 820 822 823 825 827 828 830 831 833 834 836 837 838 839 840 842 843 846 847 848 849 849 850 851 851 852 853 853 854 854 855 855 855 856 856 857 857 858 858 858 858 857
721 725 730 735 737 738 741 745 748 750 753 756 759 762 764 766 767 769 770 772 773 775 777 779 781 783 786 788 790 792 794 796 798 800 802 803 805 806 808 810 812 813 816 818 820 821 823 824 826 828 829 831 832 833 835 836 838 839 840 841 843 845 846 847 848 849 850 850 851 851 852 853 853 854 854 854 854 855 855 856 856 856 856 856 856
723 726 730 734 737 738 741 744 747 750 753 755 757 760 763 766 768 769 771 772 774 776 778 780 782 784 786 788 791 793 795 796 798 800 801 802 804 805 807 809 811 812 814 816 818 819 820 822 824 826 827 829 830 831 833 834 836 837 838 839 840 842 843 845 846 848 849 849 850 850 851 852 852 853 853 853 853 854 854 854 854 854 854 854 854
723 727 730 734 737 739 741 744 746 749 752 754 756 759 761 764 767 769 771 773 774 776 778 780 782 784 786 788 790 792 794 796 797 799 800 801 802 803 805 807 809 811 813 814 816 817 818 820 822 824 825 826 827 829 830 831 833 835 836 837 838 839 840 842 844 846 847 848 848 849 849 850 851 851 852 852 853 853 853 853 853 853 853 852 852
724 727 730 733 737 740 742 744 746 748 751 754 756 758 760 762 765 767 770 772 774 776 778 780 782 784 786 788 790 792 794 795 796 797 799 800 801 802 803 805 807 809 810 812 814 815 817 818 820 821 823 824 825 826 827 828 830 832 833 835 836 837 838 839 841 843 845 846 847 848 848 849 849 850 850 851 851 852 852 852 852 851 851 851 850
724 726 729 733 738 741 742 743 746 748 751 753 755 757 759 761 762 765 768 771 773 775 777 779 781 783 785 787 789 791 792 794 795 796 798 799 800 801 802 804 806 807 808 809 811 812 814 815 817 819 820 821 822 823 824 825 827 829 830 832 833 834 835 837 838 840 842 843 845 846 846 847 847 848 849 849 850 850 850 850 850 850 849 849 849
724 727 730 734 738 740 742 744 746 749 751 753 755 757 759 760 762 764 766 768 771 774 776 778 780 782 784 786 788 790 791 792 794 795 797 798 799 800 801 803 804 805 806 808 809 810 811 813 814 816 817 818 819 821 822 823 825 826 827 828 829 830 832 834 835 836 838 840 842 843 844 844 845 845 846 847 848 848 849 849 848 848 848 848 848
725 729 733 736 738 740 742 745 747 749 751 753 755 757 758 760 762 764 766 768 770 773 775 777 779 781 783 785 787 789 790 791 793 794 795 797 798 798 799 800 801 803 804 806 807 808 809 810 812 813 814 815 817 818 820 821 823 824 825 826 826 827 829 830 832 834 835 837 839 840 841 841 842 842 844 844 845 846 847 847 847 847 847 846 846
726 730 733 736 738 740 743 745 747 749 751 753 755 756 758 760 762 764 766 768 770 772 774 776 778 780 782 784 785 787 789 790 791 793 794 795 796 797 797 798 799 801 802 803 805 806 807 808 810 811 812 813 815 816 818 819 821 822 823 824 824 825 826 828 830 831 833 834 835 836 837 838 838 839 840 841 842 844 844 845 845 845 845 845 844
727 731 734 736 739 740 743 745 747 749 751 753 754 756 757 759 761 763 765 767 769 771 773 774 777 779 780 782 784 786 787 788 790 791 792 793 794 795 796 797 798 799 800 801 803 804 805 806 807 808 810 811 812 814 815 817 819 820 821 822 823 823 824 826 827 829 830 831 831 832 833 834 835 836 837 839 840 842 842 843 843 842 842 842 842
729 732 734 736 738 740 742 744 746 749 750 752 754 755 757 759 761 763 765 766 768 770 772 774 775 777 779 781 783 784 786 787 788 789 790 791 792 793 794 795 796 797 798 799 800 801 802 804 805 806 807 809 810 812 813 815 817 818 819 820 821 822 822 824 824 825 826 827 827 828 829 830 831 833 834 836 838 839 840 840 840 840 840 840 840
730 733 735 737 738 740 742 744 747 748 750 751 753 754 756 757 759 761 763 765 767 769 771 772 774 776 778 780 782 783 784 785 786 786 787 788 789 791 792 793 794 794 796 797 798 799 800 801 803 804 805 807 808 810 811 813 814 816 817 818 819 820 820 821 821 822 823 823 823 824 826 827 828 830 832 834 836 836 837 837 837 838 838 838 838
730 733 735 737 739 741 743 745 747 748 749 751 752 753 755 756 758 760 762 764 766 767 769 771 773 775 777 779 781 782 783 784 784 785 786 786 787 788 789 790 791 792 793 795 796 797 798 800 801 803 804 805 807 808 810 811 813 814 815 816 816 817 818 818 819 819 819 819 820 822 823 824 826 827 829 831 832 833 834 834 835 835 835 836 836
731 733 735 738 740 741 743 745 746 747 749 750 751 752 754 756 757 759 761 762 764 766 768 770 772 774 776 778 780 781 782 783 783 784 784 785 786 786 787 788 789 790 792 793 794 795 797 798 800 801 803 804 805 807 808 809 811 812 813 813 814 815 815 816 816 816 816 817 818 819 820 822 823 825 826 827 829 830 831 832 832 833 833 834 834
732 734 736 738 740 741 742 744 745 746 748 749 750 752 753 755 757 759 760 761 763 764 766 768 771 773 775 777 779 780 780 781 781 782 782 783 784 784 785 787 788 789 790 792 793 794 796 797 798 800 801 802 804 805 806 807 808 809 810 811 812 812 813 813 813 813 814 814 816 817 818 820 822 823 825 826 828 829 829 829 830 830 831 832 832
734 735 737 738 740 741 742 743 744 746 747 748 750 752 753 755 756 758 759 761 762 763 765 767 770 772 774 775 777 778 778 779 779 780 781 782 782 783 784 785 786 787 789 790 791 792 794 795 796 797 798 800 801 802 803 804 805 806 807 808 809 809 809 810 810 810 811 812 814 815 817 818 820 822 824 825 826 826 826 827 827 828 829 829 830
735 736 737 738 740 741 742 743 744 746 747 748 750 751 753 754 755 757 758 759 761 763 764 767 769 771 772 774 775 776 777 778 778 779 780 781 781 782 783 784 785 786 786 788 789 791 792 793 795 795 796 797 798 799 800 802 803 804 804 805 806 806 806 807 807 808 809 810 812 813 815 817 819 821 822 823 823 823 824 825 826 826 827 827 828
736 737 738 739 740 741 742 743 745 746 747 748 749 751 752 753 754 756 757 758 760 762 764 765 767 769 771 772 774 775 775 776 777 778 779 780 781 781 782 783 784 784 785 786 788 789 790 792 793 794 794 795 796 798 799 800 801 801 802 803 803 803 804 804 805 806 807 808 810 812 815 818 819 819 820 820 821 822 823 824 824 824 825 825 826
737 738 739 739 740 742 743 744 745 746 747 748 749 750 752 753 754 755 757 758 760 761 763 765 766 768 769 771 772 773 774 775 776 777 778 778 779 780 781 782 782 783 784 785 787 788 789 790 791 792 793 794 794 795 796 797 798 799 799 799 800 800 801 802 803 804 806 807 810 812 815 816 817 818 819 820 821 822 822 823 823 823 824 824 825
738 739 739 740 741 742 743 744 745 746 747 748 749 750 751 752 753 755 756 758 759 761 762 764 765 767 768 770 771 772 773 773 774 775 776 777 778 779 780 781 782 783 783 784 785 786 787 788 789 790 791 791 792 793 793 794 795 795 795 796 797 798 799 800 801 803 805 808 810 812 814 814 816 817 818 819 820 820 821 821 822 822 823 823 823
738 739 740 741 742 742 743 744 745 746 747 748 749 750 751 752 753 754 756 757 758 760 761 763 764 766 767 768 769 770 771 771 772 773 774 775 777 778 779 780 781 781 782 783 784 785 785 786 787 788 788 789 789 790 791 791 791 792 793 794 795 796 798 800 801 803 805 807 809 811 812 813 815 816 817 818 818 818 819 819 820 821 821 822 822
739 740 740 741 742 743 743 744 745 745 746 747 748 749 750 752 753 754 755 756 758 759 761 762 763 764 765 766 767 768 769 770 771 772 773 774 775 777 778 779 780 780 781 782 782 783 784 784 785 785 786 787 787 788 789 789 790 790 791 793 794 796 798 800 802 804 806 807 809 810 811 812 814 815 815 816 816 816 817 817 818 819 820 820 821
739 740 740 741 742 742 743 744 744 745 746 747 748 749 750 751 753 754 755 756 757 759 760 761 762 763 763 764 765 766 767 768 769 771 772 773 774 775 776 777 778 779 780 781 781 782 782 783 783 784 785 785 786 787 787 787 788 790 791 793 795 797 800 801 803 805 806 807 808 809 810 812 812 813 813 814 814 815 815 816 817 818 819 819 820